Time,TemperatureF,DewpointF,PressureIn,WindDirection,WindDirectionDegrees,WindSpeedMPH,WindSpeedGustMPH,Humidity,HourlyPrecipIn,Conditions,Clouds,dailyrainin,SoftwareType,DateUTC
2014-12-20 00:03:00,32.0,-99.9,30.15,NNE,18,13.0,-999.0,-999,-99.99,,,-99.99,,2014-12-20 05:03:00,
2014-12-20 00:13:00,32.0,-99.9,30.15,NNE,18,13.0,-999.0,-999,-99.99,,,-99.99,,2014-12-20 05:13:00,
2014-12-20 00:22:00,32.0,-99.9,30.15,NNE,18,13.0,-999.0,-999,-99.99,,,-99.99,,2014-12-20 05:22:00,
2014-12-20 00:30:00,32.0,-99.9,30.17,NNE,31,11.0,-999.0,-999,-99.99,,,-99.99,,2014-12-20 05:30:00,
2014-12-20 01:12:00,32.0,-99.9,30.17,NNE,31,11.0,-999.0,-999,-99.99,,,-99.99,,2014-12-20 06:12:00,
2014-12-20 01:22:00,32.0,-99.9,30.17,NNE,31,11.0,-999.0,-999,-99.99,,,-99.99,,2014-12-20 06:22:00,
2014-12-20 01:30:00,32.0,-99.9,30.19,NNE,20,9.0,-999.0,-999,-99.99,,,-99.99,,2014-12-20 06:30:00,
2014-12-20 02:12:00,32.0,-99.9,30.19,NNE,20,9.0,-999.0,-999,-99.99,,,-99.99,,2014-12-20 07:12:00,
2014-12-20 02:22:00,32.0,-99.9,30.19,NNE,20,9.0,-999.0,-999,-99.99,,,-99.99,,2014-12-20 07:22:00,
2014-12-20 03:22:00,32.0,-99.9,30.19,NNE,17,7.0,-999.0,-999,-99.99,,,-99.99,,2014-12-20 08:22:00,
2014-12-20 03:30:00,32.0,-99.9,30.19,NNE,29,8.0,-999.0,-999,-99.99,,,-99.99,,2014-12-20 08:30:00,
2014-12-20 03:32:00,32.0,-99.9,30.19,NNE,17,7.0,-999.0,-999,-99.99,,,-99.99,,2014-12-20 08:32:00,
2014-12-20 03:43:00,32.0,-99.9,30.19,NNE,17,7.0,-999.0,-999,-99.99,,,-99.99,,2014-12-20 08:43:00,
2014-12-20 04:12:00,32.0,-99.9,30.19,NNE,29,8.0,-999.0,-999,-99.99,,,-99.99,,2014-12-20 09:12:00,
2014-12-20 04:22:00,32.0,-99.9,30.19,NNE,29,8.0,-999.0,-999,-99.99,,,-99.99,,2014-12-20 09:22:00,
2014-12-20 04:30:00,32.0,-99.9,30.20,North,11,8.0,-999.0,-999,-99.99,,,-99.99,,2014-12-20 09:30:00,
2014-12-20 04:54:00,32.0,-99.9,30.20,North,11,8.0,-999.0,-999,-99.99,,,-99.99,,2014-12-20 09:54:00,
2014-12-20 05:03:00,32.0,-99.9,30.20,North,11,8.0,-999.0,-999,-99.99,,,-99.99,,2014-12-20 10:03:00,
2014-12-20 05:13:00,32.0,-99.9,30.20,North,11,8.0,-999.0,-999,-99.99,,,-99.99,,2014-12-20 10:13:00,
2014-12-20 05:23:00,32.0,-99.9,30.20,North,11,8.0,-999.0,-999,-99.99,,,-99.99,,2014-12-20 10:23:00,
2014-12-20 05:30:00,33.0,-99.9,30.22,NNE,13,8.0,-999.0,-999,-99.99,,,-99.99,,2014-12-20 10:30:00,
2014-12-20 05:53:00,33.0,-99.9,30.22,NNE,13,8.0,-999.0,-999,-99.99,,,-99.99,,2014-12-20 10:53:00,
2014-12-20 06:03:00,33.0,-99.9,30.22,NNE,13,8.0,-999.0,-999,-99.99,,,-99.99,,2014-12-20 11:03:00,
2014-12-20 06:12:00,33.0,-99.9,30.22,NNE,13,8.0,-999.0,-999,-99.99,,,-99.99,,2014-12-20 11:12:00,
2014-12-20 06:22:00,33.0,-99.9,30.22,NNE,13,8.0,-999.0,-999,-99.99,,,-99.99,,2014-12-20 11:22:00,
2014-12-20 06:30:00,34.0,-99.9,30.24,North,-999,9.0,-999.0,-999,-99.99,,,-99.99,,2014-12-20 11:30:00,
2014-12-20 06:53:00,34.0,-99.9,30.24,North,-999,9.0,-999.0,-999,-99.99,,,-99.99,,2014-12-20 11:53:00,
2014-12-20 07:05:00,34.0,-99.9,30.24,North,-999,9.0,-999.0,-999,-99.99,,,-99.99,,2014-12-20 12:05:00,
2014-12-20 07:13:00,34.0,-99.9,30.24,North,-999,9.0,-999.0,-999,-99.99,,,-99.99,,2014-12-20 12:13:00,
2014-12-20 07:22:00,34.0,-99.9,30.24,North,-999,9.0,-999.0,-999,-99.99,,,-99.99,,2014-12-20 12:22:00,
2014-12-20 07:30:00,34.0,-99.9,30.26,North,354,12.0,-999.0,-999,-99.99,,,-99.99,,2014-12-20 12:30:00,
2014-12-20 07:52:00,34.0,-99.9,30.26,North,354,12.0,-999.0,-999,-99.99,,,-99.99,,2014-12-20 12:52:00,
2014-12-20 08:02:00,34.0,-99.9,30.26,North,354,12.0,-999.0,-999,-99.99,,,-99.99,,2014-12-20 13:02:00,
2014-12-20 08:12:00,34.0,-99.9,30.26,North,354,12.0,-999.0,-999,-99.99,,,-99.99,,2014-12-20 13:12:00,
2014-12-20 08:22:00,34.0,-99.9,30.26,North,354,12.0,-999.0,-999,-99.99,,,-99.99,,2014-12-20 13:22:00,
2014-12-20 08:30:00,34.0,-99.9,30.28,North,9,9.0,-999.0,-999,-99.99,,,-99.99,,2014-12-20 13:30:00,
2014-12-20 09:12:00,34.0,-99.9,30.28,North,9,9.0,-999.0,-999,-99.99,,,-99.99,,2014-12-20 14:12:00,
2014-12-20 09:22:00,34.0,-99.9,30.28,North,9,9.0,-999.0,-999,-99.99,,,-99.99,,2014-12-20 14:22:00,
2014-12-20 09:30:00,35.0,-99.9,30.30,NNE,26,8.0,-999.0,-999,-99.99,,,-99.99,,2014-12-20 14:30:00,
2014-12-20 09:53:00,35.0,-99.9,30.30,NNE,26,8.0,-999.0,-999,-99.99,,,-99.99,,2014-12-20 14:53:00,
2014-12-20 10:02:00,35.0,-99.9,30.30,NNE,26,8.0,-999.0,-999,-99.99,,,-99.99,,2014-12-20 15:02:00,
2014-12-20 10:12:00,35.0,-99.9,30.30,NNE,26,8.0,-999.0,-999,-99.99,,,-99.99,,2014-12-20 15:12:00,
2014-12-20 10:22:00,35.0,-99.9,30.30,NNE,26,8.0,-999.0,-999,-99.99,,,-99.99,,2014-12-20 15:22:00,
2014-12-20 10:30:00,-999.0,-99.9,30.29,NE,42,11.0,-999.0,-999,-99.99,,,-99.99,,2014-12-20 15:30:00,
2014-12-20 11:11:00,-999.0,-99.9,30.29,NE,42,11.0,-999.0,-999,-99.99,,,-99.99,,2014-12-20 16:11:00,
2014-12-20 11:20:00,35.0,-99.9,30.29,NE,42,11.0,-999.0,-999,-99.99,,,-99.99,,2014-12-20 16:20:00,
2014-12-20 11:30:00,35.0,-99.9,30.27,NE,38,10.0,-999.0,-999,-99.99,,,-99.99,,2014-12-20 16:30:00,
2014-12-20 12:01:00,-999.0,-99.9,30.27,NE,38,10.0,-999.0,-999,-99.99,,,-99.99,,2014-12-20 17:01:00,
2014-12-20 12:11:00,-999.0,-99.9,30.27,NE,38,10.0,-999.0,-999,-99.99,,,-99.99,,2014-12-20 17:11:00,
2014-12-20 12:21:00,-999.0,-99.9,30.27,NE,38,10.0,-999.0,-999,-99.99,,,-99.99,,2014-12-20 17:21:00,
2014-12-20 12:30:00,36.0,-99.9,30.26,NNE,27,13.0,-999.0,-999,-99.99,,,-99.99,,2014-12-20 17:30:00,
2014-12-20 13:12:00,36.0,-99.9,30.26,NNE,27,13.0,-999.0,-999,-99.99,,,-99.99,,2014-12-20 18:12:00,
2014-12-20 13:23:00,36.0,-99.9,30.26,NNE,27,13.0,-999.0,-999,-99.99,,,-99.99,,2014-12-20 18:23:00,
2014-12-20 13:30:00,35.0,-99.9,30.26,NE,34,11.0,-999.0,-999,-99.99,,,-99.99,,2014-12-20 18:30:00,
2014-12-20 14:12:00,35.0,-99.9,30.26,NE,34,11.0,-999.0,-999,-99.99,,,-99.99,,2014-12-20 19:12:00,
2014-12-20 14:23:00,35.0,-99.9,30.26,NE,34,11.0,-999.0,-999,-99.99,,,-99.99,,2014-12-20 19:23:00,
2014-12-20 15:12:00,35.0,-99.9,30.27,NNE,13,10.0,-999.0,-999,-99.99,,,-99.99,,2014-12-20 20:12:00,
2014-12-20 15:22:00,35.0,-99.9,30.27,NNE,21,13.0,-999.0,-999,-99.99,,,-99.99,,2014-12-20 20:22:00,
2014-12-20 15:30:00,35.0,-99.9,30.27,NNE,25,12.0,-999.0,-999,-99.99,,,-99.99,,2014-12-20 20:30:00,
2014-12-20 15:32:00,35.0,-99.9,30.27,NNE,21,13.0,-999.0,-999,-99.99,,,-99.99,,2014-12-20 20:32:00,
2014-12-20 15:42:00,35.0,-99.9,30.27,NNE,21,13.0,-999.0,-999,-99.99,,,-99.99,,2014-12-20 20:42:00,
2014-12-20 16:12:00,35.0,-99.9,30.27,NNE,25,12.0,-999.0,-999,-99.99,,,-99.99,,2014-12-20 21:12:00,
2014-12-20 16:22:00,35.0,-99.9,30.27,NNE,25,12.0,-999.0,-999,-99.99,,,-99.99,,2014-12-20 21:22:00,
2014-12-20 16:30:00,34.0,-99.9,30.27,NNE,20,10.0,-999.0,-999,-99.99,,,-99.99,,2014-12-20 21:30:00,
2014-12-20 17:13:00,34.0,-99.9,30.27,NNE,20,10.0,-999.0,-999,-99.99,,,-99.99,,2014-12-20 22:13:00,
2014-12-20 17:23:00,34.0,-99.9,30.27,NNE,20,10.0,-999.0,-999,-99.99,,,-99.99,,2014-12-20 22:23:00,
2014-12-20 17:30:00,35.0,-99.9,30.28,NNE,13,8.0,-999.0,-999,-99.99,,,-99.99,,2014-12-20 22:30:00,
2014-12-20 17:53:00,35.0,-99.9,30.28,NNE,13,8.0,-999.0,-999,-99.99,,,-99.99,,2014-12-20 22:53:00,
2014-12-20 18:03:00,35.0,-99.9,30.28,NNE,13,8.0,-999.0,-999,-99.99,,,-99.99,,2014-12-20 23:03:00,
2014-12-20 18:12:00,35.0,-99.9,30.28,NNE,13,8.0,-999.0,-999,-99.99,,,-99.99,,2014-12-20 23:12:00,
2014-12-20 18:22:00,35.0,-99.9,30.28,NNE,13,8.0,-999.0,-999,-99.99,,,-99.99,,2014-12-20 23:22:00,
2014-12-20 18:30:00,34.0,-99.9,30.29,NNE,12,8.0,-999.0,-999,-99.99,,,-99.99,,2014-12-20 23:30:00,
2014-12-20 19:12:00,34.0,-99.9,30.29,NNE,12,8.0,-999.0,-999,-99.99,,,-99.99,,2014-12-21 00:12:00,
2014-12-20 19:22:00,34.0,-99.9,30.29,NNE,12,8.0,-999.0,-999,-99.99,,,-99.99,,2014-12-21 00:22:00,
2014-12-20 19:30:00,35.0,-99.9,30.30,NNE,15,11.0,-999.0,-999,-99.99,,,-99.99,,2014-12-21 00:30:00,
2014-12-20 20:12:00,35.0,-99.9,30.30,NNE,15,11.0,-999.0,-999,-99.99,,,-99.99,,2014-12-21 01:12:00,
2014-12-20 20:22:00,35.0,-99.9,30.30,NNE,15,11.0,-999.0,-999,-99.99,,,-99.99,,2014-12-21 01:22:00,
2014-12-20 21:12:00,35.0,-99.9,30.29,NNE,26,7.0,-999.0,-999,-99.99,,,-99.99,,2014-12-21 02:12:00,
2014-12-20 21:22:00,35.0,-99.9,30.29,NNE,16,6.0,-999.0,-999,-99.99,,,-99.99,,2014-12-21 02:22:00,